DW1345 Weather Reports


time (UTC)temp
C
wind
direction
speed
KPH
gust
KPH
rain 1hr
cm
rain 24hr
cm
rain mn
cm
humidity
%
barometer
mb
20260506200056 3 114 0.0 0.0 0.00 0.00 0.15 91 1008.8
20260506194539 3 125 0.0 0.0 0.00 0.00 0.15 91 1008.9
20260506193036 3 127 1.6 0.0 0.00 0.00 0.13 91 1008.7
20260506191536 3 62 0.0 0.0 0.00 0.00 0.13 91 1008.6
20260506190035 2 57 3.2 0.0 0.00 0.00 0.13 91 1008.4
20260506184533 3 59 1.6 0.0 0.00 0.00 0.13 91 1008.3
20260506183033 2 62 0.0 0.0 0.00 0.00 0.10 91 1008.2
20260506181535 2 64 3.2 0.0 0.00 0.00 0.10 90 1008.3
20260506180039 2 44 3.2 0.0 0.00 0.00 0.10 90 1008.2
20260506174530 2 51 6.4 0.0 0.00 0.00 0.10 90 1008.1
20260506173028 2 37 4.8 0.0 0.00 0.00 0.10 89 1008.0
20260506171543 2 36 4.8 0.0 0.00 0.00 0.10 88 1007.9
20260506170026 2 16 4.8 0.0 0.00 0.00 0.10 87 1008.0
20260506164524 3 61 4.8 0.0 0.00 0.00 0.10 85 1007.9
20260506163025 3 55 3.2 0.0 0.00 0.00 0.05 83 1008.2
20260506161534 3 39 4.8 0.0 0.00 0.00 0.05 81 1007.8
20260506160020 4 360 4.8 0.0 0.00 0.00 0.00 79 1007.6
20260506154518 5 314 8.0 0.0 0.00 0.00 0.00 76 1007.5
20260506153016 5 278 3.2 0.0 0.00 0.00 0.00 76 1007.3
20260506151515 5 273 8.0 0.0 0.00 0.00 0.00 74 1007.0
20260506150020 6 315 6.4 0.0 0.00 0.00 0.00 71 1007.0
20260506144514 6 234 6.4 0.0 0.00 0.00 0.00 71 1006.9
20260506143013 7 277 8.0 0.0 0.00 0.00 0.00 70 1006.8
20260506141513 8 244 6.4 0.0 0.00 0.00 0.00 65 1006.8
20260506140012 8 190 6.4 0.0 0.00 0.00 0.00 63 1006.8
20260506134525 7 248 4.8 0.0 0.00 0.00 0.00 72 1006.9
20260506133012 7 229 9.7 0.0 0.00 0.00 0.00 74 1006.8
20260506131509 7 257 9.7 0.0 0.00 0.00 0.00 68 1006.7
20260506130007 8 246 8.0 0.0 0.00 0.00 0.00 64 1006.5
20260506124511 8 231 6.4 0.0 0.00 0.00 0.00 61 1006.5
20260506123003 9 235 4.8 0.0 0.00 0.00 0.00 59 1006.3
20260506121507 8 206 3.2 0.0 0.00 0.00 0.00 57 1006.3
20260506114556 8 240 4.8 0.0 0.00 0.00 0.00 60 1006.2
20260506113053 8 269 4.8 0.0 0.00 0.00 0.00 61 1006.1
20260506111609 8 263 3.2 0.0 0.00 0.00 0.00 61 1006.0
20260506110051 7 212 3.2 0.0 0.00 0.00 0.00 63 1006.1
20260506104547 7 227 4.8 0.0 0.00 0.00 0.00 62 1005.9
20260506103044 7 228 3.2 0.0 0.00 0.00 0.00 63 1006.1
20260506101542 8 251 4.8 0.0 0.00 0.00 0.00 61 1005.9
20260506100038 7 193 3.2 0.0 0.00 0.00 0.00 67 1005.8
20260506094536 7 264 1.6 0.0 0.00 0.00 0.00 65 1005.7
20260506093034 6 254 3.2 0.0 0.00 0.00 0.00 67 1005.7
20260506091533 6 262 3.2 0.0 0.00 0.00 0.00 69 1005.5
20260506090031 5 285 0.0 0.0 0.00 0.00 0.00 71 1005.5
20260506084530 5 285 1.6 0.0 0.00 0.00 0.00 69 1005.2
20260506083027 6 264 0.0 0.0 0.00 0.00 0.00 64 1005.4
20260506081531 7 202 0.0 0.0 0.00 0.00 0.00 63 1005.3
20260506073019 6 185 0.0 0.0 0.00 0.00 0.00 67 1005.0
20260506071515 5 159 0.0 0.0 0.00 0.00 0.00 70 1004.7
20260506061510 5 131 3.2 0.0 0.00 0.00 0.00 73 1004.4
20260506050108 3 105 6.4 0.0 0.00 0.00 0.00 75 1003.8
20260506044558 3 131 0.0 0.0 0.00 0.00 0.00 76 1003.6
20260506043057 3 135 0.0 0.0 0.00 0.00 0.00 78 1003.6
20260506041602 3 134 1.6 0.0 0.00 0.00 0.00 78 1003.6
20260506040052 3 68 3.2 0.0 0.00 0.00 0.00 78 1003.4
20260506034558 3 72 1.6 0.0 0.00 0.00 0.00 78 1003.2
20260506033051 3 51 0.0 0.0 0.00 0.00 0.00 79 1003.2
20260506031549 2 50 0.0 0.0 0.00 0.00 0.00 80 1003.2
20260506030048 2 46 0.0 0.0 0.00 0.00 0.00 80 1002.9
20260506024557 2 46 0.0 0.0 0.00 0.00 0.00 80 1002.8
20260506023045 2 46 0.0 0.0 0.00 0.00 0.00 80 1002.6
20260506021544 2 46 0.0 0.0 0.00 0.00 0.00 81 1002.6
20260506020048 2 44 0.0 0.0 0.00 0.00 0.00 81 1002.5
20260506014541 2 44 0.0 0.0 0.00 0.00 0.00 81 1002.5
20260506013039 2 44 0.0 0.0 0.00 0.00 0.00 80 1002.2
20260506011600 2 44 0.0 0.0 0.00 0.00 0.00 79 1002.3
20260506010035 3 44 0.0 0.0 0.00 0.00 0.00 79 1002.1
20260506004542 3 44 1.6 0.0 0.00 0.00 0.00 79 1001.9
20260506003031 3 41 1.6 0.0 0.00 0.00 0.00 81 1001.7
20260506001529 3 42 3.2 0.0 0.00 0.00 0.00 81 1001.8
20260506000045 3 44 3.2 0.0 0.00 0.00 0.00 81 1001.7
20260505234539 3 53 3.2 0.0 0.00 0.00 0.00 81 1001.6
20260505233027 3 61 4.8 0.0 0.00 0.00 0.00 81 1001.6
20260505231522 3 61 3.2 0.0 0.00 0.00 0.00 80 1001.4
20260505230044 3 48 3.2 0.0 0.00 0.00 0.00 80 1001.4
20260505224533 3 63 3.2 0.0 0.00 0.00 0.00 79 1001.3
20260505223022 3 67 3.2 0.0 0.00 0.00 0.00 79 1001.3
20260505221514 3 53 3.2 0.0 0.00 0.00 0.00 78 1001.2
20260505220011 3 53 1.6 0.0 0.00 0.00 0.97 78 1001.2
20260505214514 3 53 1.6 0.0 0.00 0.00 0.97 77 1001.2
20260505213009 4 53 3.2 0.0 0.00 0.00 0.97 76 1001.0
20260505211516 4 49 3.2 0.0 0.00 0.00 0.97 76 1001.1
20260505210007 4 38 1.6 0.0 0.00 0.00 0.97 76 1000.9
20260505204506 4 37 1.6 0.0 0.00 0.00 0.97 76 1000.8
20260505203009 4 37 0.0 0.0 0.00 0.00 0.97 75 1000.6
20260505201505 5 36 1.6 0.0 0.00 0.00 0.97 75 1000.7